TimeEST,TemperatureF,Dew PointF,Humidity,Sea Level PressureIn,VisibilityMPH,Wind Direction,Wind SpeedMPH,Gust SpeedMPH,PrecipitationIn,Events,Conditions,WindDirDegrees,DateUTC
12:56 AM,27.0,7.0,43,30.29,10.0,NW,6.9,-,N/A,,Clear,310,2013-02-07 05:56:00
1:56 AM,26.1,7.0,44,30.30,10.0,NW,5.8,-,N/A,,Clear,320,2013-02-07 06:56:00
2:56 AM,27.0,8.1,45,30.32,10.0,NW,6.9,-,N/A,,Clear,320,2013-02-07 07:56:00
3:56 AM,25.0,8.1,49,30.34,10.0,NW,5.8,-,N/A,,Clear,320,2013-02-07 08:56:00
4:56 AM,26.1,14.0,60,30.36,10.0,North,5.8,-,N/A,,Clear,10,2013-02-07 09:56:00
5:56 AM,26.1,12.9,58,30.39,10.0,North,5.8,-,N/A,,Clear,360,2013-02-07 10:56:00
7:56 AM,26.1,12.0,55,30.45,10.0,NW,4.6,-,N/A,,Clear,310,2013-02-07 12:56:00
8:56 AM,27.0,10.0,49,30.46,10.0,NNW,11.5,-,N/A,,Clear,330,2013-02-07 13:56:00
9:56 AM,26.1,6.1,43,30.48,10.0,NNW,10.4,18.4,N/A,,Overcast,340,2013-02-07 14:56:00
10:56 AM,28.0,6.1,39,30.50,10.0,North,13.8,20.7,N/A,,Scattered Clouds,350,2013-02-07 15:56:00
11:56 AM,28.0,7.0,41,30.49,10.0,North,15.0,23.0,N/A,,Clear,350,2013-02-07 16:56:00
12:56 PM,28.0,9.0,45,30.48,10.0,North,13.8,23.0,N/A,,Mostly Cloudy,360,2013-02-07 17:56:00
1:56 PM,28.0,9.0,45,30.45,10.0,North,15.0,20.7,N/A,,Clear,350,2013-02-07 18:56:00
2:56 PM,28.0,10.9,49,30.47,10.0,North,9.2,-,N/A,,Clear,10,2013-02-07 19:56:00
3:56 PM,26.1,12.0,55,30.47,10.0,North,8.1,-,N/A,,Clear,10,2013-02-07 20:56:00
4:56 PM,25.0,12.0,58,30.48,10.0,NNE,8.1,-,N/A,,Clear,20,2013-02-07 21:56:00
5:56 PM,23.0,14.0,68,30.49,10.0,Calm,Calm,-,N/A,,Clear,0,2013-02-07 22:56:00
6:56 PM,21.0,14.0,74,30.50,10.0,Calm,Calm,-,N/A,,Clear,0,2013-02-07 23:56:00
7:56 PM,21.9,16.0,78,30.49,10.0,Calm,Calm,-,N/A,,Overcast,0,2013-02-08 00:56:00
8:33 PM,24.8,17.6,74,30.48,10.0,Calm,Calm,-,N/A,,Overcast,0,2013-02-08 01:33:00
8:41 PM,24.8,19.4,80,30.48,10.0,Calm,Calm,-,N/A,,Overcast,0,2013-02-08 01:41:00
8:56 PM,26.1,19.0,75,30.48,10.0,Calm,Calm,-,N/A,,Overcast,0,2013-02-08 01:56:00
9:05 PM,26.6,19.4,74,30.48,10.0,NNE,3.5,-,N/A,,Overcast,20,2013-02-08 02:05:00
9:56 PM,28.0,21.0,75,30.47,10.0,NNE,3.5,-,N/A,,Overcast,30,2013-02-08 02:56:00
10:16 PM,28.4,21.2,74,30.46,10.0,NE,3.5,-,N/A,,Overcast,50,2013-02-08 03:16:00
10:56 PM,28.0,21.0,75,30.48,10.0,NE,4.6,-,N/A,,Overcast,50,2013-02-08 03:56:00
11:56 PM,28.9,21.9,75,30.46,10.0,ENE,3.5,-,N/A,,Overcast,70,2013-02-08 04:56:00